Hourly Data Report for October 31, 2015

All times are specified in Local Standard Time (LST). Add 1 hour to adjust for Daylight Saving Time where and when it is observed.

WINNIPEG A CS
MANITOBA

49°55'00.000" N
97°14'58.000" W
238.70 m
502S001
71849
XWG

Download Data

Hourly Data (October 2015)
Hourly Data Report for October 31, 2015
Temp Definition
°C
Dew Point Temp Definition
°C
Rel Hum Definition
%
Wind Dir Definition
10's deg

Wind Spd Definition
km/h
Visibility Definition
km
Stn Press Definition
kPa
Hmdx Definition


Wind Chill Definition


Weather Definition


TIME
00:00 3.0 2.1 94 18 21   97.03     LegendNANA
01:00 3.2 2.2 93 18 21   96.98     LegendNANA
02:00 3.9 2.8 92 18 26   96.93     LegendNANA
03:00 4.1 2.8 92 18 27   96.87     LegendNANA
04:00 4.5 2.9 90 18 25   96.79     LegendNANA
05:00 4.1 2.7 91 17 25   96.72     LegendNANA
06:00 4.3 2.9 91 17 27   96.67     LegendNANA
07:00 4.3 3.1 92 18 33   96.61     LegendNANA
08:00 4.5 3.5 93 18 30   96.56     LegendNANA
09:00 5.2 4.2 93 14 20   96.46     LegendNANA
10:00 5.4 4.6 95 16 25   96.41     LegendNANA
11:00 6.2 5.1 92 17 34   96.40     LegendNANA
12:00 6.9 5.5 91 16 28   96.32     LegendNANA
13:00 7.0 5.6 91 16 23   96.24     LegendNANA
14:00 7.4 5.9 90 15 15   96.23     LegendNANA
15:00 7.3 6.5 94 10 12   96.23     LegendNANA
16:00 7.3 6.8 96 5 9   96.32     LegendNANA
17:00 6.9 6.6 98 2 12   96.41     LegendNANA
18:00 6.7 6.4 98 36 15   96.52     LegendNANA
19:00 6.4 6.2 99 33 18   96.64     LegendNANA
20:00 6.2 5.8 97 32 22   96.76     LegendNANA
21:00 6.3 5.8 97 32 24   96.85     LegendNANA
22:00 6.3 5.6 96 32 25   96.99     LegendNANA
23:00 5.9 5.3 96 32 26   97.08     LegendNANA

Notes on Data Quality.

Legend

  • E = Estimated
  • M = Missing
  • NA = Not Available
  • ‡ = Partner data that is not subject to review by the National Climate Archives
Date modified: